Weather History for Angel Fire, NM

Change the Weather History Date:

Sunday, January 6, 2013

  Actual Average (KSKX) Record (KSKX)
Temperature  
Mean Temperature 6 °F -  
Max Temperature 36 °F 40 °F 55 °F (2006)
Min Temperature -24 °F 10 °F -5 °F (2013)
Degree Days  
Heating Degree Days 59    
Moisture  
Dew Point -9 °F    
Average Humidity 68    
Maximum Humidity 87    
Minimum Humidity 24    
Precipitation  
Precipitation 0.00 in - - ()
Sea Level Pressure  
Sea Level Pressure 30.26 in    
Wind  
Wind Speed 1 mph (SW)    
Max Wind Speed 12 mph    
Max Gust Speed 18 mph    
Visibility 10 miles    
Events      
Averages and records for this station are not official NWS values.
T = Trace of Precipitation, MM = Missing Value Source: NWS Daily Summary

Daily Weather History Graph

Daily Weather History Graph

Search for Another Location

Airport:

Trip Planner

Search our weather history database for the weather conditions in past years. The results will help you decide how hot, cold, wet, or windy it might be!

Date:

Astronomy

Jan. 06, 2013 Rise Set
Actual Time 7:13 AM MST 5:01 PM MST
Civil Twilight 6:44 AM MST 5:29 PM MST
Nautical Twilight 6:12 AM MST 6:01 PM MST
Astronomical Twilight 5:41 AM MST 6:32 PM MST
Moon 1:34 AM MST (1/6) 12:27 PM MST (1/6)
Length of Visible Light 10h 44m
Length of Day
9h 47m
Waning Crescent, 32% of the Moon is Illuminated
Jan 6
Waning Crescent
Jan 11
New
Jan 18
First Quarter
Jan 26
Full
Feb 3
Last Quarter

Hourly Weather History & Observations

Time (MST) Temp. Windchill Dew Point Humidity Pressure Visibility Wind Dir Wind Speed Gust Speed Precip Events Conditions
12:35 AM -13.9 °F - -17.7 °F 83% 30.37 in 10.0 mi Calm Calm - N/A   Clear
12:55 AM -16.2 °F - -20.9 °F 79% 30.37 in 10.0 mi Calm Calm - N/A   Clear
1:15 AM -15.9 °F - -20.2 °F 81% 30.37 in 10.0 mi Calm Calm - N/A   Clear
1:35 AM -15.3 °F - -20.7 °F 77% 30.37 in 10.0 mi Calm Calm - N/A   Clear
1:55 AM -13.4 °F - -17.1 °F 83% 30.37 in 10.0 mi Calm Calm - N/A   Clear
2:35 AM -17.5 °F - -22.5 °F 78% 30.36 in 10.0 mi Calm Calm - N/A   Clear
2:55 AM -17.0 °F - -21.6 °F 79% 30.36 in 10.0 mi Calm Calm - N/A   Clear
3:15 AM -20.6 °F - -25.4 °F 78% 30.36 in 10.0 mi Calm Calm - N/A   Clear
3:35 AM -17.7 °F - -22.7 °F 78% 30.36 in 10.0 mi Calm Calm - N/A   Clear
3:55 AM -18.0 °F - -22.5 °F 80% 30.35 in 10.0 mi Calm Calm - N/A   Clear
4:15 AM -21.5 °F - -26.9 °F 76% 30.34 in 10.0 mi Calm Calm - N/A   Clear
4:35 AM -19.3 °F - -24.0 °F 79% 30.34 in 10.0 mi Calm Calm - N/A   Clear
4:55 AM -20.4 °F - -26.0 °F 75% 30.34 in 10.0 mi Calm Calm - N/A   Clear
5:35 AM -17.3 °F -27.6 °F -22.0 °F 79% 30.34 in 10.0 mi SSE 3.5 mph - N/A   Clear
5:55 AM -21.3 °F - -26.9 °F 75% 30.34 in 10.0 mi Calm Calm - N/A   Clear
6:15 AM -22.7 °F - -28.1 °F 76% 30.34 in 1.8 mi Calm Calm - N/A   Haze
6:35 AM -19.7 °F - -25.2 °F 75% 30.34 in 7.0 mi Calm Calm - N/A   Clear
6:55 AM -22.0 °F - -27.6 °F 75% 30.34 in 10.0 mi Calm Calm - N/A   Clear
7:15 AM -24.2 °F - -30.1 °F 74% 30.36 in 10.0 mi Calm Calm - N/A   Clear
7:35 AM -20.7 °F - -26.1 °F 76% 30.36 in 10.0 mi Calm Calm - N/A   Clear
7:55 AM -22.5 °F - -28.3 °F 75% 30.36 in 7.0 mi Calm Calm - N/A   Clear
8:15 AM -20.2 °F - -26.0 °F 75% 30.36 in 4.0 mi Calm Calm - N/A   Haze
8:35 AM -20.6 °F - -26.3 °F 75% 30.36 in 5.0 mi Calm Calm - N/A   Haze
8:55 AM -18.4 °F - -24.2 °F 75% 30.36 in 10.0 mi Calm Calm - N/A   Clear
9:15 AM -13.0 °F - -17.7 °F 80% 30.36 in 10.0 mi Calm Calm - N/A   Clear
9:35 AM -9.9 °F - -14.4 °F 81% 30.35 in 7.0 mi Calm Calm - N/A   Clear
9:55 AM -8.3 °F - -13.0 °F 80% 30.35 in 10.0 mi Calm Calm - N/A   Clear
10:15 AM -6.9 °F - -11.0 °F 82% 30.34 in 10.0 mi Calm Calm - N/A   Clear
10:35 AM -5.3 °F - -9.2 °F 83% 30.33 in 10.0 mi Calm Calm - N/A   Clear
10:55 AM -2.0 °F - -5.6 °F 85% 30.31 in 10.0 mi Calm Calm - N/A   Clear
11:15 AM -0.4 °F - -4.0 °F 85% 30.30 in 10.0 mi Calm Calm - N/A   Clear
11:35 AM 1.4 °F - -2.4 °F 84% 30.28 in 10.0 mi Calm Calm - N/A   Clear
11:55 AM 3.7 °F - 0.3 °F 86% 30.26 in 10.0 mi Calm Calm - N/A   Clear
12:15 PM 5.4 °F - 2.3 °F 87% 30.25 in 10.0 mi Calm Calm - N/A   Clear
12:35 PM 6.6 °F - 3.0 °F 85% 30.23 in 10.0 mi Calm Calm - N/A   Clear
12:55 PM 8.6 °F - 5.0 °F 85% 30.21 in 10.0 mi Calm Calm - N/A   Clear
1:15 PM 9.1 °F 2.6 °F 5.0 °F 83% 30.20 in 10.0 mi NNW 3.5 mph - N/A   Clear
1:35 PM 15.1 °F - 6.8 °F 70% 30.19 in 10.0 mi Calm Calm - N/A   Clear
1:55 PM 21.7 °F - 9.3 °F 59% 30.18 in 10.0 mi Calm Calm - N/A   Clear
2:15 PM 34.3 °F - 3.4 °F 27% 30.18 in 10.0 mi Calm Calm - N/A   Clear
2:35 PM 36.7 °F - 2.7 °F 24% 30.18 in 10.0 mi Calm Calm - N/A   Clear
2:55 PM 36.3 °F 29.5 °F 3.7 °F 26% 30.18 in 10.0 mi West 9.2 mph - N/A   Clear
3:35 PM 34.3 °F 25.9 °F 1.6 °F 25% 30.18 in 10.0 mi West 11.5 mph 18.4 mph N/A   Clear
3:55 PM 30.2 °F 21.3 °F 2.8 °F 31% 30.18 in 10.0 mi WSW 10.4 mph - N/A   Clear
4:15 PM 27.5 °F 23.6 °F 3.2 °F 35% 30.18 in 10.0 mi South 3.5 mph - N/A   Clear
4:35 PM 32.0 °F 24.2 °F -0.8 °F 25% 30.18 in 10.0 mi WSW 9.2 mph - N/A   Clear
4:55 PM 25.2 °F 15.1 °F 0.9 °F 35% 30.18 in 10.0 mi WSW 10.4 mph - N/A   Clear
5:15 PM 30.9 °F - -0.8 °F 26% 30.17 in 10.0 mi Calm Calm - N/A   Clear
5:35 PM 23.7 °F - 1.0 °F 38% 30.17 in 10.0 mi Calm Calm - N/A   Clear
5:55 PM 18.0 °F 12.7 °F 2.8 °F 52% 30.18 in 10.0 mi SSE 3.5 mph - N/A   Clear
6:15 PM 19.0 °F - 3.0 °F 50% 30.18 in 10.0 mi Calm Calm - N/A   Clear
6:35 PM 15.4 °F 5.6 °F 3.2 °F 59% 30.18 in 10.0 mi South 6.9 mph - N/A   Clear
6:55 PM 18.0 °F 9.8 °F 4.6 °F 56% 30.18 in 10.0 mi SW 5.8 mph - N/A   Clear
7:15 PM 17.2 °F 11.9 °F 4.6 °F 58% 30.18 in 10.0 mi WSW 3.5 mph - N/A   Clear
7:35 PM 15.6 °F 8.3 °F 4.6 °F 62% 30.17 in 10.0 mi SSW 4.6 mph - N/A   Clear
7:55 PM 17.2 °F 8.9 °F 5.0 °F 59% 30.16 in 10.0 mi SSE 5.8 mph - N/A   Clear
8:15 PM 14.7 °F 7.3 °F 3.6 °F 61% 30.16 in 10.0 mi WSW 4.6 mph - N/A   Clear
8:35 PM 11.7 °F - 2.3 °F 66% 30.16 in 10.0 mi Calm Calm - N/A   Clear
8:55 PM 8.8 °F - -0.6 °F 66% 30.16 in 10.0 mi Calm Calm - N/A   Clear
9:15 PM 8.4 °F - 0.1 °F 69% 30.16 in 10.0 mi Calm Calm - N/A   Clear
9:35 PM 7.0 °F - -1.8 °F 67% 30.16 in 10.0 mi Calm Calm - N/A   Clear
9:55 PM 3.9 °F - -2.6 °F 74% 30.16 in 10.0 mi Calm Calm - N/A   Clear
10:35 PM 0.3 °F - -5.4 °F 77% 30.15 in 10.0 mi Calm Calm - N/A   Clear
10:55 PM 2.5 °F - -3.8 °F 75% 30.15 in 10.0 mi Calm Calm - N/A   Clear
11:15 PM 2.7 °F -4.8 °F -2.6 °F 79% 30.15 in 10.0 mi SE 3.5 mph - N/A   Clear
11:35 PM 2.3 °F - -3.1 °F 78% 30.14 in 10.0 mi Calm Calm - N/A   Clear
11:55 PM 2.8 °F - -3.3 °F 76% 30.14 in 10.0 mi Calm Calm - N/A   Clear